EW0482 Weather Reports


Display with metric or nautical units.
time (UTC)temp
F
wind
direction
speed
MPH
gust
MPH
rain 1hr
in
rain 24hr
in
rain mn
in
humidity
%
barometer
mb
20260503213100 64 167 0.0 8.0 0.00 0.00 0.00 67 1002.9
20260503211610 64 246 3.0 10.0 0.00 0.00 0.00 66 1002.9
20260503210050 66 226 2.0 8.0 0.00 0.00 0.00 63 1002.9
20260503204549 66 229 1.0 8.0 0.00 0.00 0.00 65 1002.9
20260503203052 65 248 1.0 5.0 0.00 0.00 0.00 66 1002.9
20260503201549 65 244 0.0 1.0 0.00 0.00 0.00 66 1003.0
20260503200057 65 250 0.0 7.0 0.00 0.00 0.00 67 1003.2
20260503194551 65 257 0.0 6.0 0.00 0.00 0.00 67 1003.2
20260503193057 65 247 0.0 5.0 0.00 0.00 0.00 68 1003.3
20260503191549 66 248 0.0 7.0 0.00 0.00 0.00 68 1003.3
20260503190048 65 97 0.0 1.0 0.00 0.00 0.00 69 1003.3
20260503184554 65 94 0.0 4.0 0.00 0.00 0.00 70 1003.6
20260503183043 64 103 0.0 2.0 0.00 0.00 0.00 71 1003.6
20260503181552 63 248 0.0 1.0 0.00 0.00 0.00 72 1003.8
20260503180048 63 256 0.0 4.0 0.00 0.00 0.00 73 1003.8
20260503174544 62 251 0.0 3.0 0.00 0.00 0.00 73 1003.8
20260503173041 62 242 0.0 5.0 0.00 0.00 0.00 73 1003.8
20260503171529 61 248 0.0 1.0 0.00 0.00 0.00 72 1003.7
20260503100107 60 246 0.0 0.0 0.00 0.00 0.00 62 1001.9
20260503081544 59 253 0.0 1.0 0.00 0.00 0.00 37 1002.3
20260503071542 59 253 0.0 2.0 0.00 0.00 0.00 24 1002.0
20260503054516 59 253 0.0 3.0 0.00 0.00 0.00 12 1002.0
20260503053008 59 249 0.0 2.0 0.00 0.00 0.00 11 1002.1
20260503051508 60 250 0.0 1.0 0.00 0.00 0.00 11 1002.1
20260503050100 60 252 0.0 0.0 0.00 0.00 0.00 14 1002.1
20260503044608 60 252 0.0 1.0 0.00 0.00 0.00 16 1001.9
20260503043056 60 252 0.0 0.0 0.00 0.00 0.00 17 1001.8
20260503041547 60 252 0.0 0.0 0.00 0.00 0.00 19 1001.6
20260503040043 60 248 0.0 5.0 0.00 0.00 0.00 25 1001.2
20260503034538 60 257 0.0 3.0 0.00 0.00 0.00 26 1001.0
20260503033038 60 252 0.0 3.0 0.00 0.00 0.00 30 1000.7
20260503031530 60 254 0.0 2.0 0.00 0.00 0.00 33 1000.5
20260503030044 60 250 0.0 3.0 0.00 0.00 0.00 37 1000.3
20260503024529 60 258 0.0 3.0 0.00 0.00 0.00 43 1000.1
20260503023015 60 264 0.0 4.0 0.00 0.00 0.00 50 999.9
20260503021511 61 249 0.0 4.0 0.00 0.00 0.00 57 999.9
20260503020007 61 252 0.0 4.0 0.00 0.00 0.00 63 999.8
20260503014502 63 242 0.0 4.0 0.00 0.00 0.00 70 999.9
20260503013058 64 261 0.0 3.0 0.00 0.00 0.00 72 999.8
20260503011559 65 252 0.0 2.0 0.00 0.00 0.00 73 999.7
20260503010105 65 255 0.0 3.0 0.00 0.00 0.00 73 999.8
20260503004546 66 265 0.0 5.0 0.00 0.00 0.00 73 999.7
20260503003052 66 252 1.0 6.0 0.00 0.00 0.00 73 999.7
20260503001537 67 250 0.0 5.0 0.00 0.00 0.00 73 999.8
20260503000034 66 253 1.0 7.0 0.00 0.00 0.00 73 999.8
20260502234528 66 251 0.0 3.0 0.00 0.00 0.00 73 999.8
20260502233024 66 244 0.0 7.0 0.00 0.00 0.00 73 1000.0
20260502231519 66 236 0.0 2.0 0.00 0.00 0.00 73 1000.0
20260502230014 66 271 0.0 5.0 0.00 0.00 0.00 73 1000.3
20260502224510 65 210 1.0 9.0 0.00 0.00 0.00 72 1000.4
20260502223009 66 268 0.0 7.0 0.00 0.00 0.00 73 1001.0
20260502221501 66 242 1.0 9.0 0.00 0.00 0.00 72 1001.3
20260502220058 66 239 0.0 7.0 0.00 0.00 0.00 72 1001.5
20260502214557 66 250 2.0 9.0 0.00 0.00 0.00 72 1001.7